• In Uzbekistan
  • List of Countries
  • For 7 days
  • Water Temperature
  • Satellite Maps
  • Weather Map
  • Weather Widgets
  • user-avatar
    Login

    Hourly Weather Kananga

    Today, 23 August, Wednesday

    Time Temperature Precipitation Wind Pressure Humidity
    00:00 +22°C° 0 mm 1 mps 705 mmHg 91%
    01:00 +22°C° 0 mm 1 mps 705 mmHg 92%
    02:00 +22°C° 0 mm 1 mps 705 mmHg 92%
    03:00 +22°C° 0 mm 1 mps 705 mmHg 92%
    04:00 +22°C° 0 mm 1 mps 705 mmHg 92%
    05:00 +22°C° 0 mm 1 mps 705 mmHg 90%
    06:00 +21°C° 0 mm 0 mps 705 mmHg 87%
    07:00 +24°C° 0 mm 1 mps 706 mmHg 84%
    08:00 +26°C° 0 mm 1 mps 706 mmHg 77%
    09:00 +27°C° 0 mm 1 mps 706 mmHg 70%
    10:00 +29°C° 0 mm 1 mps 706 mmHg 64%
    11:00 +31°C° 0 mm 1 mps 705 mmHg 58%
    12:00 +32°C° 0 mm 1 mps 705 mmHg 53%
    13:00 +34°C° 0 mm 1 mps 704 mmHg 48%
    14:00 +33°C° 0 mm 1 mps 704 mmHg 51%
    15:00 +32°C° 0 mm 1 mps 703 mmHg 55%
    16:00 +32°C° 0 mm 1 mps 703 mmHg 59%
    17:00 +30°C° 0.2 mm 1 mps 703 mmHg 66%
    18:00 +27°C° 0.2 mm 1 mps 703 mmHg 74%
    19:00 +25°C° 0.2 mm 1 mps 703 mmHg 81%
    20:00 +25°C° 0.3 mm 1 mps 703 mmHg 83%
    21:00 +24°C° 0.3 mm 1 mps 703 mmHg 85%
    22:00 +22°C° 0.3 mm 0 mps 704 mmHg 87%
    23:00 +23°C° 0.5 mm 1 mps 704 mmHg 89%

    Tomorrow, 24 August, Thursday

    Time Temperature Precipitation Wind Pressure Humidity
    00:00 +23°C° 0.5 mm 1 mps 703 mmHg 91%
    01:00 +23°C° 0.5 mm 1 mps 703 mmHg 93%
    02:00 +21°C° 0.8 mm 0 mps 703 mmHg 94%
    03:00 +20°C° 0.8 mm 0 mps 703 mmHg 95%
    04:00 +20°C° 0.8 mm 0 mps 703 mmHg 96%
    05:00 +21°C° 0.2 mm 0 mps 703 mmHg 95%
    06:00 +21°C° 0.2 mm 0 mps 704 mmHg 95%
    07:00 +23°C° 0.2 mm 1 mps 704 mmHg 95%
    08:00 +24°C° 0.2 mm 1 mps 704 mmHg 93%
    09:00 +25°C° 0.2 mm 1 mps 704 mmHg 92%
    10:00 +26°C° 0.2 mm 1 mps 705 mmHg 90%
    11:00 +28°C° 0 mm 1 mps 704 mmHg 79%
    12:00 +30°C° 0 mm 2 mps 704 mmHg 67%
    13:00 +32°C° 0 mm 2 mps 703 mmHg 55%
    14:00 +32°C° 0.1 mm 2 mps 703 mmHg 60%
    15:00 +31°C° 0.1 mm 1 mps 702 mmHg 65%
    16:00 +30°C° 0.1 mm 1 mps 702 mmHg 69%
    17:00 +28°C° 3 mm 1 mps 702 mmHg 77%
    18:00 +26°C° 3 mm 1 mps 703 mmHg 85%
    19:00 +24°C° 3 mm 1 mps 703 mmHg 92%
    20:00 +24°C° 0.3 mm 1 mps 704 mmHg 93%
    21:00 +24°C° 0.3 mm 1 mps 704 mmHg 93%
    22:00 +23°C° 0.3 mm 1 mps 704 mmHg 94%
    23:00 +23°C° 0 mm 1 mps 704 mmHg 94%

    Day after tomorrow, 25 August, Friday

    Time Temperature Precipitation Wind Pressure Humidity
    00:00 +23°C° 0 mm 1 mps 704 mmHg 94%
    01:00 +23°C° 0 mm 1 mps 703 mmHg 95%
    02:00 +22°C° 0.1 mm 1 mps 703 mmHg 95%
    03:00 +22°C° 0.1 mm 1 mps 703 mmHg 96%
    04:00 +22°C° 0.1 mm 1 mps 703 mmHg 96%
    05:00 +23°C° 0.4 mm 1 mps 704 mmHg 95%
    06:00 +21°C° 0.4 mm 0 mps 704 mmHg 94%
    07:00 +22°C° 0.4 mm 0 mps 705 mmHg 93%
    08:00 +26°C° 0.1 mm 1 mps 705 mmHg 82%
    09:00 +28°C° 0.1 mm 2 mps 705 mmHg 71%
    10:00 +30°C° 0.1 mm 2 mps 706 mmHg 60%
    11:00 +31°C° 0.5 mm 3 mps 705 mmHg 60%
    12:00 +31°C° 0.5 mm 3 mps 704 mmHg 59%
    13:00 +33°C° 0.5 mm 3 mps 703 mmHg 59%
    14:00 +31°C° 0.6 mm 2 mps 703 mmHg 63%
    15:00 +30°C° 0.6 mm 2 mps 702 mmHg 67%
    16:00 +30°C° 0.6 mm 2 mps 702 mmHg 71%
    17:00 +28°C° 1.2 mm 2 mps 702 mmHg 77%
    18:00 +26°C° 1.2 mm 1 mps 703 mmHg 84%
    19:00 +24°C° 1.2 mm 1 mps 703 mmHg 91%
    20:00 +24°C° 0 mm 1 mps 704 mmHg 92%
    21:00 +24°C° 0 mm 1 mps 704 mmHg 93%
    22:00 +23°C° 0 mm 1 mps 704 mmHg 94%
    23:00 +23°C° 0 mm 1 mps 704 mmHg 95%

    26 August, Saturday

    Time Temperature Precipitation Wind Pressure Humidity
    00:00 +23°C° 0 mm 1 mps 703 mmHg 95%
    01:00 +22°C° 0 mm 1 mps 703 mmHg 96%
    02:00 +22°C° 0.2 mm 1 mps 703 mmHg 96%
    03:00 +22°C° 0.2 mm 1 mps 703 mmHg 96%
    04:00 +22°C° 0.2 mm 1 mps 704 mmHg 96%
    05:00 +23°C° 0.1 mm 1 mps 704 mmHg 96%
    06:00 +23°C° 0.1 mm 1 mps 705 mmHg 95%
    07:00 +23°C° 0.1 mm 1 mps 706 mmHg 94%
    08:00 +25°C° 0.5 mm 2 mps 706 mmHg 86%
    09:00 +27°C° 0.5 mm 2 mps 706 mmHg 78%
    10:00 +29°C° 0.5 mm 2 mps 706 mmHg 70%
    11:00 +30°C° 0.7 mm 2 mps 705 mmHg 67%
    12:00 +31°C° 0.7 mm 2 mps 705 mmHg 64%
    13:00 +31°C° 0.7 mm 2 mps 704 mmHg 61%
    14:00 +30°C° 0.9 mm 2 mps 704 mmHg 67%
    15:00 +29°C° 0.9 mm 2 mps 703 mmHg 73%
    16:00 +28°C° 0.9 mm 2 mps 703 mmHg 79%
    17:00 +27°C° 0.5 mm 1 mps 703 mmHg 83%
    18:00 +26°C° 0.5 mm 1 mps 704 mmHg 87%
    19:00 +24°C° 0.5 mm 1 mps 704 mmHg 90%
    20:00 +24°C° 0.1 mm 1 mps 704 mmHg 91%
    21:00 +23°C° 0.1 mm 1 mps 705 mmHg 92%
    22:00 +23°C° 0.1 mm 1 mps 705 mmHg 92%
    23:00 +23°C° 0 mm 1 mps 704 mmHg 92%

    27 August, Sunday

    Time Temperature Precipitation Wind Pressure Humidity
    00:00 +23°C° 0 mm 1 mps 704 mmHg 91%
    01:00 +23°C° 0 mm 1 mps 703 mmHg 90%
    02:00 +22°C° 0 mm 1 mps 703 mmHg 90%
    03:00 +20°C° 0 mm 0 mps 703 mmHg 91%
    04:00 +20°C° 0 mm 0 mps 703 mmHg 91%
    05:00 +21°C° 0 mm 0 mps 704 mmHg 89%
    06:00 +21°C° 0 mm 0 mps 705 mmHg 88%
    07:00 +22°C° 0 mm 0 mps 705 mmHg 86%
    08:00 +24°C° 0.1 mm 0 mps 706 mmHg 78%
    09:00 +28°C° 0.1 mm 1 mps 706 mmHg 70%
    10:00 +30°C° 0.1 mm 1 mps 706 mmHg 62%
    11:00 +31°C° 0.2 mm 1 mps 705 mmHg 59%
    12:00 +31°C° 0.2 mm 2 mps 704 mmHg 57%
    13:00 +32°C° 0.2 mm 2 mps 703 mmHg 54%
    14:00 +31°C° 0.1 mm 2 mps 703 mmHg 58%
    15:00 +31°C° 0.1 mm 2 mps 703 mmHg 63%
    16:00 +30°C° 0.1 mm 2 mps 702 mmHg 68%
    17:00 +28°C° 0.7 mm 2 mps 703 mmHg 76%
    18:00 +26°C° 0.7 mm 2 mps 703 mmHg 85%
    19:00 +24°C° 0.7 mm 1 mps 704 mmHg 93%
    20:00 +24°C° 1.8 mm 1 mps 704 mmHg 94%
    21:00 +23°C° 1.8 mm 1 mps 705 mmHg 95%
    22:00 +23°C° 1.8 mm 1 mps 705 mmHg 95%
    23:00 +23°C° 0.4 mm 1 mps 705 mmHg 96%

    28 August, Monday

    Time Temperature Precipitation Wind Pressure Humidity
    00:00 +23°C° 0.4 mm 1 mps 704 mmHg 96%
    01:00 +22°C° 0.4 mm 1 mps 704 mmHg 97%
    02:00 +22°C° 0 mm 1 mps 704 mmHg 97%
    03:00 +22°C° 0 mm 1 mps 704 mmHg 97%
    04:00 +22°C° 0 mm 1 mps 704 mmHg 98%
    05:00 +22°C° 0 mm 1 mps 704 mmHg 96%
    06:00 +23°C° 0 mm 1 mps 705 mmHg 95%
    07:00 +23°C° 0 mm 2 mps 705 mmHg 94%
    08:00 +25°C° 0.1 mm 2 mps 705 mmHg 86%
    09:00 +27°C° 0.1 mm 2 mps 705 mmHg 78%
    10:00 +28°C° 0.1 mm 2 mps 706 mmHg 70%
    11:00 +29°C° 0.9 mm 2 mps 705 mmHg 73%
    12:00 +29°C° 0.9 mm 2 mps 704 mmHg 75%
    13:00 +29°C° 0.9 mm 2 mps 703 mmHg 78%
    14:00 +28°C° 1.2 mm 2 mps 703 mmHg 82%
    15:00 +27°C° 1.2 mm 2 mps 703 mmHg 87%
    16:00 +27°C° 1.2 mm 1 mps 703 mmHg 92%
    17:00 +25°C° 1.2 mm 1 mps 703 mmHg 93%
    18:00 +24°C° 1.2 mm 1 mps 704 mmHg 95%
    19:00 +23°C° 1.2 mm 1 mps 704 mmHg 96%
    20:00 +23°C° 0.2 mm 1 mps 705 mmHg 96%
    21:00 +23°C° 0.2 mm 1 mps 705 mmHg 97%
    22:00 +22°C° 0.2 mm 1 mps 706 mmHg 97%
    23:00 +22°C° 0 mm 1 mps 705 mmHg 97%
    Show more